When you browse on this site, cookies collect data to enhance your experience and personalize the content and advertising you see.
Visit our Privacy Policy to learn more. By continuing to use the site, you agree to this use of cookies and data.
  • In United Kingdom
  • List of Countries
  • For 7 days
  • Water Temperature
  • Weather Map
  • Weather Widgets
  • user-avatar
    Login

    Hourly Weather Chrzypsko Wielkie

    Today, 13 November, Wednesday

    Time Temperature Precipitation Wind Pressure Humidity
    00:00 +6°C° 0.4 mm 1 mps 750 mmHg 94%
    01:00 +6°C° 0.4 mm 1 mps 749 mmHg 94%
    02:00 +6°C° 0.1 mm 1 mps 749 mmHg 94%
    03:00 +6°C° 0.1 mm 1 mps 749 mmHg 94%
    04:00 +6°C° 0.1 mm 1 mps 748 mmHg 95%
    05:00 +6°C° 0.1 mm 1 mps 748 mmHg 95%
    06:00 +6°C° 0.1 mm 1 mps 748 mmHg 94%
    07:00 +6°C° 0.1 mm 1 mps 747 mmHg 94%
    08:00 +6°C° 0 mm 1 mps 747 mmHg 93%
    09:00 +7°C° 0 mm 1 mps 747 mmHg 92%
    10:00 +7°C° 0 mm 1 mps 747 mmHg 91%
    11:00 +6°C° 0.3 mm 2 mps 746 mmHg 91%
    12:00 +6°C° 0.3 mm 2 mps 746 mmHg 91%
    13:00 +5°C° 0.3 mm 3 mps 746 mmHg 92%
    14:00 +6°C° 0.7 mm 2 mps 746 mmHg 92%
    15:00 +5°C° 0.7 mm 2 mps 746 mmHg 93%
    16:00 +5°C° 0.7 mm 2 mps 746 mmHg 94%
    17:00 +5°C° 0.1 mm 2 mps 747 mmHg 93%
    18:00 +5°C° 0.1 mm 2 mps 747 mmHg 93%
    19:00 +5°C° 0.1 mm 2 mps 747 mmHg 92%
    20:00 +5°C° 0.4 mm 2 mps 747 mmHg 92%
    21:00 +5°C° 0.4 mm 2 mps 747 mmHg 92%
    22:00 +5°C° 0.4 mm 2 mps 747 mmHg 91%
    23:00 +4°C° 0.9 mm 3 mps 748 mmHg 91%

    Tomorrow, 14 November, Thursday

    Time Temperature Precipitation Wind Pressure Humidity
    00:00 +4°C° 0.9 mm 4 mps 748 mmHg 91%
    01:00 +3°C° 0.9 mm 4 mps 748 mmHg 91%
    02:00 +3°C° 0.6 mm 4 mps 748 mmHg 92%
    03:00 +3°C° 0.6 mm 4 mps 748 mmHg 93%
    04:00 +3°C° 0.6 mm 3 mps 749 mmHg 94%
    05:00 +3°C° 0.1 mm 3 mps 749 mmHg 93%
    06:00 +4°C° 0.1 mm 2 mps 750 mmHg 92%
    07:00 +4°C° 0.1 mm 2 mps 751 mmHg 91%
    08:00 +5°C° 0 mm 2 mps 751 mmHg 88%
    09:00 +5°C° 0 mm 2 mps 752 mmHg 85%
    10:00 +5°C° 0 mm 2 mps 752 mmHg 82%
    11:00 +6°C° 0 mm 2 mps 753 mmHg 78%
    12:00 +6°C° 0 mm 2 mps 753 mmHg 74%
    13:00 +7°C° 0 mm 2 mps 754 mmHg 70%
    14:00 +6°C° 0 mm 2 mps 754 mmHg 73%
    15:00 +6°C° 0 mm 2 mps 754 mmHg 76%
    16:00 +5°C° 0 mm 2 mps 754 mmHg 79%
    17:00 +4°C° 0 mm 2 mps 754 mmHg 82%
    18:00 +4°C° 0 mm 2 mps 754 mmHg 84%
    19:00 +3°C° 0 mm 3 mps 755 mmHg 86%
    20:00 +2°C° 0 mm 3 mps 755 mmHg 87%
    21:00 +2°C° 0 mm 3 mps 755 mmHg 87%
    22:00 +1°C° 0 mm 4 mps 755 mmHg 88%
    23:00 +3°C° 0 mm 4 mps 754 mmHg 88%

    Day after tomorrow, 15 November, Friday

    Time Temperature Precipitation Wind Pressure Humidity
    00:00 +2°C° 0 mm 5 mps 754 mmHg 88%
    01:00 +2°C° 0 mm 5 mps 754 mmHg 88%
    02:00 +3°C° 0 mm 5 mps 753 mmHg 89%
    03:00 +3°C° 0 mm 5 mps 753 mmHg 91%
    04:00 +3°C° 0 mm 6 mps 753 mmHg 92%
    05:00 +3°C° 0 mm 6 mps 752 mmHg 92%
    06:00 +4°C° 0 mm 6 mps 752 mmHg 93%
    07:00 +4°C° 0 mm 6 mps 752 mmHg 93%
    08:00 +8°C° 0 mm 6 mps 751 mmHg 84%
    09:00 +10°C° 0 mm 6 mps 751 mmHg 76%
    10:00 +11°C° 0 mm 7 mps 751 mmHg 68%
    11:00 +12°C° 0 mm 7 mps 751 mmHg 65%
    12:00 +14°C° 0 mm 7 mps 750 mmHg 61%
    13:00 +15°C° 0 mm 7 mps 750 mmHg 57%
    14:00 +14°C° 0 mm 6 mps 750 mmHg 61%
    15:00 +14°C° 0 mm 6 mps 750 mmHg 65%
    16:00 +13°C° 0 mm 5 mps 750 mmHg 69%
    17:00 +13°C° 0 mm 5 mps 750 mmHg 71%
    18:00 +12°C° 0 mm 5 mps 750 mmHg 74%
    19:00 +12°C° 0 mm 5 mps 751 mmHg 76%
    20:00 +12°C° 0 mm 5 mps 751 mmHg 76%
    21:00 +12°C° 0 mm 5 mps 751 mmHg 76%
    22:00 +12°C° 0 mm 5 mps 751 mmHg 76%
    23:00 +12°C° 0 mm 5 mps 751 mmHg 77%

    16 November, Saturday

    Time Temperature Precipitation Wind Pressure Humidity
    00:00 +12°C° 0 mm 5 mps 751 mmHg 77%
    01:00 +12°C° 0 mm 5 mps 751 mmHg 77%
    02:00 +12°C° 0 mm 5 mps 751 mmHg 77%
    03:00 +12°C° 0 mm 5 mps 750 mmHg 77%
    04:00 +11°C° 0 mm 6 mps 750 mmHg 77%
    05:00 +11°C° 0 mm 6 mps 750 mmHg 77%
    06:00 +12°C° 0 mm 5 mps 751 mmHg 77%
    07:00 +12°C° 0 mm 5 mps 751 mmHg 76%
    08:00 +10°C° 0 mm 5 mps 752 mmHg 75%
    09:00 +10°C° 0 mm 5 mps 753 mmHg 74%
    10:00 +9°C° 0 mm 5 mps 754 mmHg 73%
    11:00 +9°C° 0 mm 5 mps 754 mmHg 72%
    12:00 +10°C° 0 mm 4 mps 755 mmHg 71%
    13:00 +8°C° 0 mm 4 mps 755 mmHg 69%
    14:00 +9°C° 0 mm 3 mps 756 mmHg 72%
    15:00 +8°C° 0 mm 2 mps 756 mmHg 75%
    16:00 +8°C° 0 mm 1 mps 757 mmHg 78%
    17:00 +8°C° 0 mm 1 mps 757 mmHg 80%
    18:00 +6°C° 0 mm 0 mps 758 mmHg 82%
    19:00 +6°C° 0 mm 0 mps 758 mmHg 84%
    20:00 +7°C° 0 mm 1 mps 758 mmHg 84%
    21:00 +6°C° 0 mm 1 mps 759 mmHg 85%
    22:00 +5°C° 0 mm 2 mps 759 mmHg 86%
    23:00 +6°C° 0 mm 2 mps 759 mmHg 85%

    17 November, Sunday

    Time Temperature Precipitation Wind Pressure Humidity
    00:00 +6°C° 0 mm 2 mps 759 mmHg 85%
    01:00 +6°C° 0 mm 2 mps 758 mmHg 84%
    02:00 +7°C° 0.5 mm 3 mps 758 mmHg 86%
    03:00 +7°C° 0.5 mm 3 mps 757 mmHg 87%
    04:00 +7°C° 0.5 mm 3 mps 757 mmHg 88%
    05:00 +8°C° 0.3 mm 3 mps 756 mmHg 89%
    06:00 +8°C° 0.3 mm 3 mps 756 mmHg 90%
    07:00 +9°C° 0.3 mm 3 mps 755 mmHg 91%
    08:00 +8°C° 0 mm 4 mps 755 mmHg 88%
    09:00 +10°C° 0 mm 4 mps 755 mmHg 86%
    10:00 +10°C° 0 mm 5 mps 754 mmHg 83%
    11:00 +11°C° 0 mm 4 mps 754 mmHg 80%
    12:00 +12°C° 0 mm 4 mps 753 mmHg 78%
    13:00 +12°C° 0 mm 4 mps 753 mmHg 75%
    14:00 +12°C° 0 mm 4 mps 753 mmHg 77%
    15:00 +11°C° 0 mm 4 mps 753 mmHg 79%
    16:00 +11°C° 0 mm 4 mps 753 mmHg 81%
    17:00 +10°C° 0 mm 4 mps 753 mmHg 83%
    18:00 +10°C° 0 mm 4 mps 753 mmHg 85%
    19:00 +10°C° 0 mm 4 mps 753 mmHg 86%
    20:00 +8°C° 0 mm 4 mps 753 mmHg 87%
    21:00 +8°C° 0 mm 4 mps 753 mmHg 88%
    22:00 +8°C° 0 mm 4 mps 753 mmHg 88%
    23:00 +8°C° 0 mm 4 mps 753 mmHg 88%

    18 November, Monday

    Time Temperature Precipitation Wind Pressure Humidity
    00:00 +7°C° 0 mm 4 mps 752 mmHg 88%
    01:00 +7°C° 0 mm 4 mps 752 mmHg 88%
    02:00 +7°C° 0 mm 4 mps 752 mmHg 87%
    03:00 +7°C° 0 mm 4 mps 752 mmHg 87%
    04:00 +7°C° 0 mm 4 mps 752 mmHg 86%
    05:00 +8°C° 0 mm 4 mps 752 mmHg 84%
    06:00 +8°C° 0 mm 4 mps 752 mmHg 82%
    07:00 +8°C° 0 mm 5 mps 752 mmHg 80%
    08:00 +9°C° 0 mm 5 mps 752 mmHg 77%
    09:00 +10°C° 0 mm 5 mps 752 mmHg 74%
    10:00 +10°C° 0 mm 5 mps 752 mmHg 72%
    11:00 +12°C° 0 mm 5 mps 752 mmHg 69%
    12:00 +13°C° 0 mm 5 mps 752 mmHg 66%
    13:00 +13°C° 0 mm 5 mps 752 mmHg 64%
    14:00 +13°C° 0 mm 4 mps 752 mmHg 67%
    15:00 +12°C° 0 mm 4 mps 752 mmHg 71%
    16:00 +11°C° 0 mm 3 mps 752 mmHg 74%
    17:00 +11°C° 0 mm 3 mps 753 mmHg 75%
    18:00 +11°C° 0 mm 3 mps 753 mmHg 75%
    19:00 +11°C° 0 mm 4 mps 753 mmHg 76%
    20:00 +11°C° 0 mm 4 mps 754 mmHg 77%
    21:00 +11°C° 0 mm 4 mps 754 mmHg 78%
    22:00 +11°C° 0 mm 4 mps 755 mmHg 79%
    23:00 +10°C° 0 mm 3 mps 755 mmHg 83%
    Show more